• In Czech Republic
  • List of Countries
  • For 7 days
  • Water Temperature
  • Satellite Maps
  • Weather Map
  • Weather Widgets
  • user-avatar
    Login

    Hourly Weather Northallerton

    Today, 13 December, Wednesday

    Time Temperature Precipitation Wind Pressure Humidity
    00:00 +2°C° 0 mm 6 mps 744 mmHg 93%
    01:00 +2°C° 0 mm 5 mps 743 mmHg 92%
    02:00 +1°C° 0 mm 5 mps 743 mmHg 91%
    03:00 +1°C° 0 mm 4 mps 743 mmHg 90%
    04:00 +1°C° 0.1 mm 4 mps 743 mmHg 91%
    05:00 +1°C° 0.1 mm 4 mps 743 mmHg 91%
    06:00 +1°C° 0.1 mm 4 mps 742 mmHg 92%
    07:00 +3°C° 0.2 mm 4 mps 741 mmHg 92%
    08:00 +2°C° 0.2 mm 5 mps 740 mmHg 93%
    09:00 +2°C° 0.2 mm 5 mps 739 mmHg 93%
    10:00 +3°C° 0.7 mm 6 mps 738 mmHg 92%
    11:00 +3°C° 0.7 mm 7 mps 737 mmHg 91%
    12:00 +3°C° 0.7 mm 7 mps 736 mmHg 90%
    13:00 +3°C° 0.4 mm 7 mps 736 mmHg 86%
    14:00 +3°C° 0.4 mm 7 mps 735 mmHg 82%
    15:00 +2°C° 0.4 mm 7 mps 735 mmHg 78%
    16:00 0°C° 0 mm 7 mps 735 mmHg 78%
    17:00 0°C° 0 mm 7 mps 735 mmHg 77%
    18:00 -1°C° 0 mm 6 mps 735 mmHg 77%
    19:00 -1°C° 0 mm 6 mps 735 mmHg 77%
    20:00 -1°C° 0 mm 7 mps 735 mmHg 77%
    21:00 -1°C° 0 mm 7 mps 735 mmHg 76%
    22:00 -1°C° 0 mm 7 mps 735 mmHg 76%
    23:00 -1°C° 0 mm 7 mps 735 mmHg 75%

    Tomorrow, 14 December, Thursday

    Time Temperature Precipitation Wind Pressure Humidity
    00:00 -1°C° 0 mm 7 mps 736 mmHg 74%
    01:00 -1°C° 0 mm 7 mps 736 mmHg 75%
    02:00 -1°C° 0 mm 7 mps 736 mmHg 76%
    03:00 -1°C° 0 mm 7 mps 736 mmHg 76%
    04:00 -1°C° 0 mm 7 mps 736 mmHg 77%
    05:00 -1°C° 0 mm 7 mps 735 mmHg 77%
    06:00 -1°C° 0 mm 7 mps 735 mmHg 77%
    07:00 -1°C° 0 mm 6 mps 735 mmHg 78%
    08:00 -1°C° 0 mm 6 mps 735 mmHg 79%
    09:00 -1°C° 0 mm 6 mps 735 mmHg 80%
    10:00 +1°C° 0 mm 6 mps 735 mmHg 79%
    11:00 +1°C° 0 mm 6 mps 735 mmHg 78%
    12:00 +2°C° 0 mm 6 mps 735 mmHg 77%
    13:00 +2°C° 0 mm 5 mps 735 mmHg 79%
    14:00 +1°C° 0 mm 5 mps 735 mmHg 80%
    15:00 +1°C° 0 mm 4 mps 734 mmHg 82%
    16:00 +1°C° 0.1 mm 4 mps 734 mmHg 85%
    17:00 0°C° 0.1 mm 4 mps 734 mmHg 87%
    18:00 +1°C° 0.1 mm 3 mps 734 mmHg 90%
    19:00 0°C° 0 mm 3 mps 734 mmHg 91%
    20:00 +1°C° 0 mm 2 mps 734 mmHg 92%
    21:00 +1°C° 0 mm 2 mps 734 mmHg 92%
    22:00 +1°C° 0 mm 2 mps 735 mmHg 92%
    23:00 +1°C° 0 mm 2 mps 736 mmHg 91%

    Day after tomorrow, 15 December, Friday

    Time Temperature Precipitation Wind Pressure Humidity
    00:00 +1°C° 0 mm 2 mps 736 mmHg 91%
    01:00 0°C° 0 mm 3 mps 737 mmHg 91%
    02:00 0°C° 0 mm 3 mps 738 mmHg 91%
    03:00 -1°C° 0 mm 4 mps 739 mmHg 91%
    04:00 -1°C° 0 mm 4 mps 741 mmHg 91%
    05:00 0°C° 0 mm 4 mps 742 mmHg 90%
    06:00 0°C° 0 mm 5 mps 743 mmHg 89%
    07:00 0°C° 0.1 mm 5 mps 744 mmHg 88%
    08:00 +1°C° 0.1 mm 5 mps 745 mmHg 87%
    09:00 +1°C° 0.1 mm 5 mps 746 mmHg 85%
    10:00 +1°C° 0 mm 6 mps 746 mmHg 83%
    11:00 +1°C° 0 mm 6 mps 747 mmHg 80%
    12:00 +2°C° 0 mm 6 mps 748 mmHg 77%
    13:00 +1°C° 0 mm 6 mps 748 mmHg 78%
    14:00 +1°C° 0 mm 5 mps 749 mmHg 78%
    15:00 0°C° 0 mm 5 mps 749 mmHg 78%
    16:00 0°C° 0 mm 5 mps 749 mmHg 78%
    17:00 -2°C° 0 mm 6 mps 750 mmHg 78%
    18:00 -2°C° 0 mm 6 mps 750 mmHg 78%
    19:00 -2°C° 0 mm 6 mps 751 mmHg 78%
    20:00 -2°C° 0 mm 6 mps 751 mmHg 79%
    21:00 -2°C° 0 mm 6 mps 752 mmHg 79%
    22:00 -3°C° 0 mm 6 mps 752 mmHg 79%
    23:00 -2°C° 0 mm 5 mps 752 mmHg 79%

    16 December, Saturday

    Time Temperature Precipitation Wind Pressure Humidity
    00:00 -2°C° 0 mm 5 mps 753 mmHg 79%
    01:00 -2°C° 0 mm 5 mps 753 mmHg 79%
    02:00 -2°C° 0 mm 5 mps 753 mmHg 78%
    03:00 -2°C° 0 mm 5 mps 754 mmHg 78%
    04:00 -2°C° 0 mm 5 mps 754 mmHg 78%
    05:00 -2°C° 0 mm 5 mps 755 mmHg 78%
    06:00 -2°C° 0 mm 5 mps 755 mmHg 78%
    07:00 -2°C° 0 mm 5 mps 756 mmHg 78%
    08:00 -2°C° 0 mm 5 mps 756 mmHg 78%
    09:00 -2°C° 0 mm 5 mps 757 mmHg 78%
    10:00 -1°C° 0 mm 5 mps 758 mmHg 75%
    11:00 0°C° 0 mm 5 mps 758 mmHg 72%
    12:00 +1°C° 0 mm 4 mps 758 mmHg 70%
    13:00 +1°C° 0 mm 4 mps 759 mmHg 71%
    14:00 +2°C° 0 mm 3 mps 759 mmHg 73%
    15:00 +1°C° 0 mm 3 mps 759 mmHg 74%
    16:00 +2°C° 0.2 mm 2 mps 760 mmHg 77%
    17:00 +2°C° 0.2 mm 2 mps 760 mmHg 80%
    18:00 +3°C° 0.2 mm 1 mps 761 mmHg 82%
    19:00 +3°C° 0 mm 1 mps 761 mmHg 84%
    20:00 +2°C° 0 mm 1 mps 761 mmHg 85%
    21:00 +2°C° 0 mm 1 mps 762 mmHg 86%
    22:00 +2°C° 0 mm 1 mps 762 mmHg 87%
    23:00 +1°C° 0 mm 1 mps 762 mmHg 87%

    17 December, Sunday

    Time Temperature Precipitation Wind Pressure Humidity
    00:00 +1°C° 0 mm 1 mps 763 mmHg 87%
    01:00 +1°C° 0 mm 1 mps 763 mmHg 87%
    02:00 +1°C° 0 mm 1 mps 763 mmHg 87%
    03:00 +1°C° 0 mm 1 mps 763 mmHg 87%
    04:00 +1°C° 0 mm 1 mps 763 mmHg 88%
    05:00 -1°C° 0 mm 2 mps 763 mmHg 89%
    06:00 -1°C° 0 mm 2 mps 763 mmHg 89%
    07:00 +1°C° 0 mm 2 mps 763 mmHg 90%
    08:00 +1°C° 0 mm 2 mps 763 mmHg 91%
    09:00 +1°C° 0 mm 2 mps 764 mmHg 91%
    10:00 +1°C° 0 mm 3 mps 763 mmHg 91%
    11:00 +1°C° 0 mm 4 mps 763 mmHg 91%
    12:00 +3°C° 0 mm 4 mps 763 mmHg 90%
    13:00 +3°C° 0 mm 5 mps 762 mmHg 91%
    14:00 +3°C° 0 mm 5 mps 761 mmHg 92%
    15:00 +3°C° 0 mm 5 mps 761 mmHg 93%
    16:00 +3°C° 0.2 mm 6 mps 760 mmHg 93%
    17:00 +4°C° 0.2 mm 6 mps 760 mmHg 93%
    18:00 +4°C° 0.2 mm 6 mps 759 mmHg 93%
    19:00 +5°C° 0.4 mm 6 mps 758 mmHg 93%
    20:00 +5°C° 0.4 mm 7 mps 758 mmHg 93%
    21:00 +6°C° 0.4 mm 7 mps 758 mmHg 92%
    22:00 +6°C° 0 mm 7 mps 758 mmHg 92%
    23:00 +7°C° 0 mm 6 mps 758 mmHg 91%

    18 December, Monday

    Time Temperature Precipitation Wind Pressure Humidity
    00:00 +8°C° 0 mm 6 mps 758 mmHg 91%
    01:00 +7°C° 0 mm 5 mps 759 mmHg 91%
    02:00 +6°C° 0 mm 5 mps 760 mmHg 90%
    03:00 +5°C° 0 mm 4 mps 760 mmHg 90%
    04:00 +4°C° 0 mm 4 mps 761 mmHg 90%
    05:00 +4°C° 0 mm 4 mps 762 mmHg 91%
    06:00 +3°C° 0 mm 3 mps 762 mmHg 91%
    07:00 +3°C° 0 mm 3 mps 763 mmHg 91%
    08:00 +3°C° 0 mm 3 mps 764 mmHg 91%
    09:00 +3°C° 0 mm 3 mps 765 mmHg 91%
    10:00 +4°C° 0 mm 2 mps 765 mmHg 89%
    11:00 +5°C° 0 mm 2 mps 765 mmHg 87%
    12:00 +6°C° 0 mm 2 mps 766 mmHg 85%
    13:00 +5°C° 0 mm 2 mps 766 mmHg 84%
    14:00 +6°C° 0 mm 1 mps 766 mmHg 84%
    15:00 +6°C° 0 mm 1 mps 767 mmHg 84%
    16:00 +5°C° 0 mm 1 mps 767 mmHg 84%
    17:00 +5°C° 0 mm 1 mps 767 mmHg 84%
    18:00 +5°C° 0 mm 1 mps 768 mmHg 84%
    19:00 +4°C° 0 mm 1 mps 768 mmHg 84%
    20:00 +4°C° 0 mm 1 mps 768 mmHg 84%
    21:00 +4°C° 0 mm 1 mps 768 mmHg 84%
    22:00 +3°C° 0 mm 2 mps 769 mmHg 84%
    23:00 +3°C° 0 mm 2 mps 769 mmHg 85%
    Show more